This demonstration page uses our WeatherBlox Daily Observations layout. Learn more.

Left ArrowRight Arrow

39.51506, -84.39828

Hourly Observations for April 13, 2018

Temp ( °F °C ) Dew Point ( °F °C ) Humidity (%) Winds ( mph kmh ) Pressure ( in mb ) Visibility ( mi km ) Precip ( " mm )
12:15 am 00:15 Clear 67 19.3 42 5.7 41 41 SSW 7 11 29.80 1009 10 16 0.00 0.00
12:35 am 00:35 Clear 67 19.6 42 5.5 40 40 S 9 15 29.80 1009 10 16 0.00 0.00
12:55 am 00:55 Clear 67 19.7 42 5.6 40 40 SSW 10 17 29.80 1009 10 16 0.00 0.00
1:15 am 01:15 Clear 69 20.3 42 5.5 38 38 SSW 16 26 29.80 1009 10 16 0.00 0.00
1:35 am 01:35 Clear 70 21 42 5.4 36 36 SSW 13 20 29.80 1009 10 16 0.00 0.00
1:55 am 01:55 Clear 69 20.8 42 5.6 37 37 SSW 15 24 29.80 1009 10 16 0.00 0.00
2:15 am 02:15 Clear 69 20.8 42 5.5 37 37 SSW 17 28 29.80 1009 10 16 0.00 0.00
2:35 am 02:35 Clear 69 20.6 42 5.3 37 37 SSW 16 26 29.80 1009 10 16 0.00 0.00
2:55 am 02:55 Clear 69 20.3 42 5.3 38 38 SSW 16 26 29.80 1009 10 16 0.00 0.00
3:15 am 03:15 Clear 67 19.5 42 5.5 40 40 SSW 12 19 29.80 1009 10 16 0.00 0.00
3:35 am 03:35 Clear 67 19.5 42 5.6 40 40 SSW 14 22 29.80 1009 10 16 0.00 0.00
3:55 am 03:55 Clear 67 19.3 42 5.6 41 41 SSW 12 19 29.80 1009 10 16 0.00 0.00
4:15 am 04:15 Clear 66 18.9 42 5.8 42 42 SSW 13 20 29.80 1009 10 16 0.00 0.00
4:35 am 04:35 Clear 66 18.7 42 5.7 43 43 SSW 12 19 29.80 1009 10 16 0.00 0.00
4:55 am 04:55 Clear 66 18.8 42 5.7 42 42 SSW 12 19 29.83 1010 10 16 0.00 0.00
5:15 am 05:15 Clear 65 18.4 43 6 44 44 SSW 9 15 29.83 1010 10 16 0.00 0.00
5:35 am 05:35 Clear 64 17.6 43 6 47 47 SSW 9 15 29.83 1010 10 16 0.00 0.00
5:55 am 05:55 Clear 63 17 43 6.2 49 49 SSW 9 15 29.83 1010 10 16 0.00 0.00
6:15 am 06:15 Clear 63 17.1 44 6.6 50 50 SSW 6 9 29.83 1010 10 16 0.00 0.00
6:35 am 06:35 Clear 62 16.9 44 6.5 51 51 S 8 13 29.83 1010 10 16 0.00 0.00
6:55 am 06:55 Clear 63 17.3 44 6.6 50 50 S 9 15 29.85 1011 10 16 0.00 0.00
7:15 am 07:15 Sunny 62 16.9 44 6.7 51 51 S 9 15 29.85 1011 10 16 0.00 0.00
7:35 am 07:35 Sunny 63 17.3 44 6.7 50 50 S 10 17 29.85 1011 10 16 0.00 0.00
7:55 am 07:55 Sunny 65 18.1 44 6.8 48 48 S 15 24 29.83 1010 10 16 0.00 0.00
8:15 am 08:15 Sunny 65 18.3 45 7.2 49 49 S 13 20 29.85 1011 10 16 0.00 0.00
8:35 am 08:35 Sunny 66 18.7 45 7.4 48 48 S 14 22 29.85 1011 10 16 0.00 0.00
8:55 am 08:55 Sunny 65 18.6 46 7.5 49 49 S 15 24 29.85 1011 10 16 0.00 0.00
9:15 am 09:15 Sunny 66 18.8 46 7.6 48 48 S 17 28 29.85 1011 10 16 0.00 0.00
9:35 am 09:35 Sunny 67 19.3 46 8 48 48 S 16 26 29.85 1011 10 16 0.00 0.00
9:55 am 09:55 Sunny 69 20.5 47 8.5 46 46 SSW 20 31 29.85 1011 10 16 0.00 0.00
10:15 am 10:15 Sunny 70 21.1 48 8.9 46 46 SSW 18 30 29.83 1010 10 16 0.00 0.00
10:35 am 10:35 Sunny 71 21.6 48 8.8 44 44 SSW 25 41 29.83 1010 10 16 0.00 0.00
10:55 am 10:55 Sunny 72 22.1 48 8.9 43 43 SSW 25 41 29.83 1010 10 16 0.00 0.00
11:15 am 11:15 Sunny 73 22.5 47 8.4 41 41 SSW 23 37 29.83 1010 10 16 0.00 0.00
11:35 am 11:35 Sunny 73 23 47 8.5 40 40 SSW 24 39 29.83 1010 10 16 0.00 0.00
11:55 am 11:55 Sunny 74 23.4 47 8.6 39 39 S 22 35 29.83 1010 10 16 0.00 0.00
12:15 pm 12:15 Sunny 74 23.5 46 7.9 37 37 S 22 35 29.83 1010 10 16 0.00 0.00
12:35 pm 12:35 Sunny 75 23.7 45 7.4 35 35 S 28 44 29.83 1010 10 16 0.00 0.00
12:55 pm 12:55 Sunny 76 24.4 46 7.5 34 34 SSW 28 44 29.83 1010 10 16 0.00 0.00
1:15 pm 13:15 Sunny 76 24.6 44 6.4 31 31 SSW 26 43 29.83 1010 10 16 0.00 0.00
1:35 pm 13:35 Sunny 77 25.2 46 7.5 32 32 SSW 23 37 29.80 1009 10 16 0.00 0.00
1:55 pm 13:55 Sunny 78 25.5 46 7.8 32 32 S 22 35 29.80 1009 10 16 0.00 0.00
2:15 pm 14:15 Sunny 79 26 45 7.4 31 31 SSW 29 46 29.80 1009 10 16 0.00 0.00
2:35 pm 14:35 Sunny 79 26.2 45 7.1 30 30 SSW 25 41 29.77 1008 10 16 0.00 0.00
2:55 pm 14:55 Sunny 80 26.5 45 7.2 29 29 SSW 28 44 29.77 1008 10 16 0.00 0.00
3:15 pm 15:15 Sunny 80 26.5 44 6.8 29 29 SSW 26 43 29.77 1008 10 16 0.00 0.00
3:35 pm 15:35 Sunny 81 27.1 46 8 30 30 SSW 21 33 29.77 1008 10 16 0.00 0.00
3:55 pm 15:55 Sunny 80 26.6 45 7.4 30 30 SW 24 39 29.77 1008 10 16 0.00 0.00
4:15 pm 16:15 Sunny 80 26.9 44 6.8 28 28 SSW 24 39 29.77 1008 10 16 0.00 0.00
4:35 pm 16:35 Sunny 80 26.8 44 6.9 28 28 SSW 29 46 29.80 1009 10 16 0.00 0.00
4:55 pm 16:55 Sunny 81 27 46 7.6 29 29 SSW 22 35 29.80 1009 10 16 0.00 0.00
5:15 pm 17:15 Sunny 80 26.6 46 7.8 30 30 SSW 21 33 29.80 1009 10 16 0.00 0.00
5:35 pm 17:35 Sunny 78 25.7 47 8.3 33 33 SSW 13 20 29.83 1010 10 16 0.00 0.00
5:55 pm 17:55 Sunny 80 26.6 47 8.2 31 31 SSW 18 30 29.80 1009 10 16 0.00 0.00
6:15 pm 18:15 Sunny 79 26.1 48 8.7 33 33 SSW 18 30 29.83 1010 10 16 0.00 0.00
6:35 pm 18:35 Sunny 79 26 48 8.8 34 34 SSW 17 28 29.83 1010 10 16 0.00 0.00
6:55 pm 18:55 Sunny 78 25.6 47 8.6 34 34 SW 16 26 29.83 1010 10 16 0.00 0.00
7:15 pm 19:15 Sunny 76 24.2 49 9.2 39 39 SW 13 20 29.83 1010 10 16 0.00 0.00
7:35 pm 19:35 Sunny 75 23.7 49 9.2 40 40 SSW 12 19 29.83 1010 10 16 0.00 0.00
7:55 pm 19:55 Sunny 74 23.3 48 9 40 40 SSW 12 19 29.83 1010 10 16 0.00 0.00
8:15 pm 20:15 Partly Cloudy 73 22.8 49 9.5 43 43 SW 7 11 29.83 1010 10 16 0.00 0.00
8:35 pm 20:35 Partly Cloudy 72 22.1 49 9.5 45 45 SSW 6 9 29.83 1010 10 16 0.00 0.00
8:55 pm 20:55 Clear 71 21.5 49 9.7 47 47 SSW 7 11 29.83 1010 10 16 0.00 0.00
9:15 pm 21:15 Clear 71 21.8 49 9.5 46 46 SW 10 17 29.83 1010 10 16 0.00 0.00
9:35 pm 21:35 Cloudy 74 23.1 49 9.3 42 42 SSW 10 17 29.85 1011 10 16 0.00 0.00
9:55 pm 21:55 Mostly Cloudy 72 22.4 48 9.1 43 43 SSW 8 13 29.85 1011 10 16 0.00 0.00
10:15 pm 22:15 Cloudy 71 21.6 49 9.2 45 45 SSW 6 9 29.85 1011 10 16 0.00 0.00
10:35 pm 22:35 Cloudy 71 21.6 49 9.4 46 46 SSW 6 9 29.85 1011 10 16 0.00 0.00
10:55 pm 22:55 Cloudy 70 21.1 49 9.7 48 48 SW 3 6 29.85 1011 10 16 0.00 0.00
11:15 pm 23:15 Cloudy 70 21.1 49 9.6 48 48 SSW 5 7 29.85 1011 10 16 0.00 0.00
11:35 pm 23:35 Cloudy 70 21 49 9.7 49 49 SSW 6 9 29.83 1010 10 16 0.00 0.00
11:55 pm 23:55 Cloudy 69 20.5 50 10 51 51 SSW 5 7 29.83 1010 10 16 0.00 0.00

Powered by AerisWeather